Weather History for Columbus, OH

Change the Weather History Date:

Saturday, December 14, 2013

  Actual Average Record
Temperature  
Mean Temperature 35 °F 34 °F  
Max Temperature 38 °F 40 °F 65 °F (1995)
Min Temperature 31 °F 27 °F -1 °F (1898)
Degree Days  
Heating Degree Days 30 31  
Month to date heating degree days 454 408  
Since 1 July heating degree days 1516 1422  
Cooling Degree Days 0 0  
Month to date cooling degree days 0 0  
Year to date cooling degree days 1179 1024  
Moisture  
Dew Point 32 °F    
Average Humidity 87    
Maximum Humidity 92    
Minimum Humidity 82    
Precipitation  
Precipitation 0.60 in 0.09 in 1.50 in (1901)
Month to date precipitation 1.65 1.37  
Year to date precipitation 38.90 37.71  
Snow  
Snow 1.90 in 0.20 in 5.80 in (1951)
Month to date snowfall 10.8 1.8  
Since 1 July snowfall 15.5 2.9  
Snow Depth 3.00 in    
Sea Level Pressure  
Sea Level Pressure 29.92 in    
Wind  
Wind Speed 7 mph (ESE)    
Max Wind Speed 17 mph    
Max Gust Speed 21 mph    
Visibility 3 miles    
Events Fog , Rain , Snow    
T = Trace of Precipitation, MM = Missing Value Source: NWS Daily Summary

Daily Weather History Graph

Daily Weather History Graph

Search for Another Location

Airport:

Trip Planner

Search our weather history database for the weather conditions in past years. The results will help you decide how hot, cold, wet, or windy it might be!

Date:

Astronomy

Dec. 14, 2013 Rise Set
Actual Time 7:45 AM EST 5:07 PM EST
Civil Twilight 7:15 AM EST 5:37 PM EST
Nautical Twilight 6:41 AM EST 6:11 PM EST
Astronomical Twilight 6:08 AM EST 6:44 PM EST
Moon 3:28 PM EST (12/14) 5:05 AM EST (12/14)
Length of Visible Light 10h 22m
Length of Day
9h 21m
Waxing Gibbous, 93% of the Moon is Illuminated
Dec 14
Waxing Gibbous
Dec 17
Full
Dec 25
Last Quarter
Jan 1
New
Jan 7
First Quarter

Hourly Weather History & Observations

Time (EST) Temp. Windchill Dew Point Humidity Pressure Visibility Wind Dir Wind Speed Gust Speed Precip Events Conditions
12:19 AM 32.0 °F - 28.4 °F 87% 30.20 in 0.5 mi Calm Calm - 0.04 in Fog , Snow Snow
12:29 AM 30.2 °F 25.4 °F 28.4 °F 93% 30.19 in 0.2 mi ENE 4.6 mph - 0.06 in Fog , Snow Heavy Snow
12:51 AM 30.9 °F 25.2 °F 28.0 °F 89% 30.20 in 0.2 mi ENE 5.8 mph - 0.08 in Fog , Snow Heavy Snow
12:53 AM 30.2 °F 23.4 °F 28.4 °F 93% 30.17 in 0.5 mi ENE 6.9 mph - 0.00 in Fog , Snow Snow
12:59 AM 30.2 °F 24.3 °F 28.4 °F 93% 30.17 in 1.8 mi ENE 5.8 mph - 0.00 in Snow Light Snow
1:06 AM 30.2 °F 25.4 °F 28.4 °F 93% 30.16 in 2.0 mi ENE 4.6 mph - 0.00 in Snow Light Snow
1:15 AM 30.2 °F 25.4 °F 28.4 °F 93% 30.16 in 2.0 mi ENE 4.6 mph - 0.00 in Snow Light Snow
1:51 AM 32.0 °F 25.6 °F 28.9 °F 88% 30.18 in 2.0 mi East 6.9 mph - 0.02 in Snow Light Snow
2:00 AM 32.0 °F 26.4 °F 28.4 °F 87% 30.15 in 1.8 mi East 5.8 mph - 0.01 in Snow Light Snow
2:15 AM 32.0 °F 27.5 °F 28.4 °F 87% 30.15 in 2.0 mi ENE 4.6 mph - 0.01 in Snow Light Snow
2:51 AM 32.0 °F - 28.9 °F 88% 30.18 in 2.0 mi Calm Calm - 0.01 in Snow Light Snow
2:59 AM 32.0 °F - 28.4 °F 87% 30.16 in 5.0 mi Calm Calm - 0.00 in   Overcast
3:51 AM 32.0 °F 28.7 °F 28.9 °F 88% 30.18 in 4.0 mi SSE 3.5 mph - 0.00 in Snow Light Snow
4:11 AM 32.0 °F 28.7 °F 28.4 °F 87% 30.14 in 2.5 mi ESE 3.5 mph - 0.01 in Snow Light Snow
4:44 AM 33.8 °F 29.6 °F 28.4 °F 81% 30.12 in 3.0 mi ENE 4.6 mph - 0.02 in Snow Light Snow
4:51 AM 33.1 °F 28.7 °F 28.9 °F 85% 30.14 in 3.0 mi ENE 4.6 mph - 0.02 in Snow Light Snow
4:59 AM 33.8 °F 28.6 °F 28.4 °F 81% 30.11 in 3.0 mi ENE 5.8 mph - 0.00 in Snow Light Snow
5:12 AM 33.8 °F 28.6 °F 28.4 °F 81% 30.12 in 2.5 mi ESE 5.8 mph - 0.00 in Snow Light Snow
5:36 AM 33.8 °F 27.0 °F 28.4 °F 81% 30.11 in 2.0 mi East 8.1 mph - 0.01 in Snow Light Snow
5:51 AM 33.1 °F 26.9 °F 28.9 °F 85% 30.14 in 2.0 mi East 6.9 mph - 0.01 in Snow Light Snow
6:34 AM 33.8 °F 26.4 °F 28.4 °F 81% 30.09 in 2.0 mi East 9.2 mph - 0.01 in Snow Light Snow
6:43 AM 33.8 °F 26.4 °F 28.4 °F 81% 30.09 in 2.0 mi East 9.2 mph - 0.01 in Snow Light Snow
6:51 AM 33.1 °F 26.9 °F 28.9 °F 85% 30.11 in 2.0 mi East 6.9 mph - 0.01 in Snow Light Snow
7:51 AM 33.1 °F 24.9 °F 28.9 °F 85% 30.09 in 2.0 mi ESE 10.4 mph - 0.02 in Snow Light Snow
8:00 AM 33.8 °F 26.4 °F 28.4 °F 81% 30.06 in 5.0 mi ESE 9.2 mph - 0.00 in Snow Light Snow
8:51 AM 34.0 °F 26.6 °F 30.9 °F 89% 30.07 in 3.0 mi ESE 9.2 mph - 0.02 in Rain Light Rain
9:02 AM 35.6 °F 27.1 °F 30.2 °F 81% 30.04 in 3.0 mi ESE 12.7 mph - 0.01 in Rain Light Rain
9:51 AM 35.1 °F 26.9 °F 30.9 °F 85% 30.04 in 4.0 mi ESE 11.5 mph - 0.03 in Rain Light Rain
10:17 AM 35.6 °F 27.5 °F 32.0 °F 87% 30.00 in 4.0 mi ESE 11.5 mph - 0.01 in Rain Light Rain
10:51 AM 35.1 °F 28.6 °F 32.0 °F 89% 30.01 in 5.0 mi ESE 8.1 mph - 0.03 in Rain Light Rain
11:31 AM 35.6 °F 28.6 °F 32.0 °F 87% 29.92 in 5.0 mi East 9.2 mph - 0.04 in Rain Light Rain
11:51 AM 35.1 °F 27.4 °F 32.0 °F 89% 29.92 in 5.0 mi ESE 10.4 mph - 0.06 in Rain Light Rain
12:51 PM 37.0 °F 31.0 °F 33.1 °F 86% 29.88 in 5.0 mi ESE 8.1 mph - 0.05 in Rain Light Rain
1:08 PM 35.6 °F 28.6 °F 33.8 °F 93% 29.83 in 4.0 mi East 9.2 mph - 0.02 in Rain Light Rain
1:31 PM 35.6 °F 28.0 °F 33.8 °F 93% 29.81 in 5.0 mi East 10.4 mph - 0.05 in Rain Rain
1:51 PM 36.0 °F 30.3 °F 33.1 °F 89% 29.82 in 7.0 mi ESE 6.9 mph - 0.07 in Rain Light Rain
1:59 PM 35.6 °F 29.2 °F 33.8 °F 93% 29.79 in 6.0 mi East 8.1 mph - 0.01 in Rain Light Rain
2:41 PM 35.6 °F 27.1 °F 33.8 °F 93% 29.74 in 5.0 mi East 12.7 mph - 0.09 in Rain Light Rain
2:51 PM 37.0 °F 29.3 °F 33.1 °F 86% 29.75 in 6.0 mi ESE 11.5 mph - 0.09 in Rain Light Rain
3:23 PM 37.4 °F 30.3 °F 33.8 °F 87% 29.73 in 3.0 mi ESE 10.4 mph - 0.02 in Rain Light Rain
3:43 PM 37.4 °F 30.3 °F 33.8 °F 87% 29.73 in 2.0 mi ESE 10.4 mph - 0.03 in Rain Light Rain
3:51 PM 37.0 °F 29.8 °F 34.0 °F 89% 29.75 in 2.0 mi ESE 10.4 mph - 0.03 in Rain Light Rain
3:58 PM 37.4 °F 30.3 °F 33.8 °F 87% 29.73 in 5.0 mi ESE 10.4 mph - 0.01 in Rain Light Rain
4:12 PM 37.4 °F 31.4 °F 33.8 °F 87% 29.73 in 3.0 mi ESE 8.1 mph - 0.01 in Rain Light Rain
4:17 PM 37.4 °F 30.8 °F 33.8 °F 87% 29.73 in 2.0 mi SE 9.2 mph - 0.01 in Rain Light Rain
4:31 PM 37.4 °F 31.4 °F 33.8 °F 87% 29.72 in 2.5 mi SE 8.1 mph - 0.01 in Rain Light Rain
4:47 PM 37.4 °F 31.4 °F 35.6 °F 93% 29.71 in 4.0 mi ESE 8.1 mph - 0.01 in Rain Light Rain
4:51 PM 37.0 °F 31.6 °F 35.1 °F 93% 29.73 in 4.0 mi ESE 6.9 mph - 0.01 in Rain Light Rain
5:09 PM 37.4 °F 31.4 °F 35.6 °F 93% 29.71 in 5.0 mi SE 8.1 mph - 0.01 in Rain Light Rain
5:47 PM 37.4 °F 33.8 °F 35.6 °F 93% 29.70 in 2.5 mi SSE 4.6 mph - 0.02 in Rain Light Rain
5:51 PM 37.0 °F 32.4 °F 35.1 °F 93% 29.72 in 2.5 mi SSE 5.8 mph - 0.03 in Rain Light Rain
5:59 PM 37.4 °F 32.8 °F 35.6 °F 93% 29.70 in 4.0 mi SE 5.8 mph - 0.01 in Rain Light Rain
6:51 PM 37.0 °F - 36.0 °F 96% 29.72 in 2.5 mi Calm Calm - 0.02 in Rain Light Rain
7:05 PM 37.4 °F - 35.6 °F 93% 29.70 in 1.8 mi Calm Calm - 0.01 in Rain Light Rain
7:47 PM 37.4 °F 34.9 °F 35.6 °F 93% 29.70 in 1.2 mi South 3.5 mph - 0.02 in Rain Light Rain
7:51 PM 37.0 °F 33.3 °F 35.1 °F 93% 29.72 in 1.0 mi SSW 4.6 mph - 0.02 in Rain Light Rain
8:51 PM 37.0 °F 31.0 °F 35.1 °F 93% 29.72 in 1.0 mi WSW 8.1 mph - 0.00 in   Light Drizzle
9:26 PM 37.4 °F 30.3 °F 35.6 °F 93% 29.70 in 4.0 mi West 10.4 mph - 0.00 in   Light Drizzle
9:51 PM 37.0 °F 29.8 °F 35.1 °F 93% 29.73 in 4.0 mi West 10.4 mph - 0.00 in   Overcast
10:24 PM 35.6 °F 27.5 °F 33.8 °F 93% 29.72 in 6.0 mi West 11.5 mph - N/A   Overcast
10:51 PM 36.0 °F 27.5 °F 34.0 °F 93% 29.74 in 1.5 mi West 12.7 mph - N/A   Overcast
10:57 PM 35.6 °F 27.5 °F 33.8 °F 93% 29.72 in 0.2 mi West 11.5 mph - N/A Fog Fog
11:13 PM 35.6 °F 27.5 °F 33.8 °F 93% 29.73 in 0.8 mi West 11.5 mph - N/A   Mist
11:21 PM 35.6 °F 25.9 °F 33.8 °F 93% 29.73 in 2.5 mi WNW 16.1 mph - N/A   Overcast
11:44 PM 33.8 °F 25.3 °F 32.0 °F 93% 29.75 in 1.5 mi WNW 11.5 mph - N/A   Overcast
11:51 PM 34.0 °F 26.0 °F 32.0 °F 92% 29.77 in 1.5 mi WNW 10.4 mph - N/A   Overcast